EHI
0 0 0 0 0 0 0 1 2 4 5 4 3 3 2 1 0 0 1 0 0 0 0 0 0 0 0 0 0 0 0 1 2 2 2 1 1 1 0 0 0 0 0
0 0 0 0 0 0 0 0 2 4 4 4 3 3 1 0 0 1 1 1 0 0 0 0 0 0 1 1 0 0 0 0 1 1 1 0 0 0 0 0 0 0 0
0 0 0 0 0 0 0 0 1 2 2 3 3 2 1 0 0 1 1 1 0 1 1 1 1 1 2 2 1 0 0 0 0 0 0 0 0 0 0 0 0 0 0
0 0 0 0 0 0 0 0 0 1 1 2 1 1 0 0 0 0 0 0 0 1 2 3 2 2 3 3 2 0 0 0 0 0 0 0 0 1 1 0 0 0 0
0 0 0 0 0 0 0 0 0 0 1 1 0 0 0 0 0 0 0 0 0 1 2 3 4 3 2 2 1 0 0 0 1 0 0 0 1 2 1 0 0 0 0
0 0 0 0 0 0 0 0 0 0 0 0 0 0 0 0 0 0 0 0 0 1 1 3 4 3 1 1 0 0 0 0 0 0 0 0 1 2 1 1 0 0 0
0 0 0 0 0 0 0 0 0 0 0 0 0 0 0 0 0 0 0 0 0 0 1 2 2 1 1 1 0 0 0 0 0 0 0 0 1 1 1 1 1 1 1
0 0 0 0 0 0 0 0 0 0 0 0 0 0 0 0 0 0 0 0 0 0 1 1 1 0 0 0 0 0 0 0 0 0 0 0 0 0 0 0 0 0 0
0 0 0 0 0 0 0 0 0 0 0 0 0 0 0 0 0 0 0 0 0 0 0 0 0 0 0 0 0 0 0 0 0 0 0 0 0 0 0 0 0 0 0
0 0 0 0 0 0 0 0 0 0 0 0 0 0 0 0 0 0 0 0 0 0 0 0 0 0 0 0 0 0 0 0 0 1 1 1 1 1 1 1 1 1 0
0 0 0 0 0 0 0 0 0 0 0 0 0 0 0 0 0 0 0 0 0 0 0 0 0 0 0 0 0 0 0 0 1 2 4 3 2 2 2 2 2 1 1
0 0 0 0 0 0 0 0 0 0 0 0 0 0 0 0 0 0 0 0 0 0 0 0 0 0 0 0 0 0 0 0 1 2 3 3 2 2 1 1 1 1 0
0 0 0 0 0 0 0 0 0 0 0 0 0 0 0 0 0 0 0 0 0 0 0 0 0 0 0 0 0 0 0 0 1 1 1 2 2 1 0 0 0 0 0
0 0 0 0 0 0 0 0 0 0 0 0 0 0 0 0 0 0 0 0 0 0 0 0 0 0 0 0 0 0 0 0 0 0 0 1 1 1 0 0 0 0 0
0 0 0 0 0 0 0 0 0 0 0 0 0 0 0 0 0 0 0 0 0 0 0 0 0 0 0 0 0 0 0 0 0 0 0 0 0 0 0 0 0 0 0
0 0 0 0 0 0 0 0 0 0 0 0 0 0 0 0 0 0 0 0 0 0 0 0 0 0 0 0 0 0 0 0 0 0 0 0 0 0 0 0 0 0 0
0 0 0 0 0 0 0 0 0 0 0 0 0 0 0 0 0 0 0 0 0 0 0 0 0 0 0 0 0 0 0 0 0 0 0 0 0 0 0 1 1 1 0
0 0 0 0 0 0 0 0 0 0 0 0 0 0 0 0 0 0 0 0 0 0 0 0 0 0 0 0 0 0 0 0 0 0 0 1 2 1 1 1 2 1 0
0 0 0 0 0 0 0 0 0 0 0 0 0 0 0 0 0 0 0 0 0 0 0 0 0 0 0 0 0 0 0 0 0 0 1 2 3 2 1 1 1 0 1
0 0 0 0 0 0 0 0 0 0 0 0 0 0 0 0 0 0 0 0 0 0 0 0 0 0 0 0 0 0 0 0 0 0 1 2 2 1 0 0 0 0 1
0 0 0 0 0 0 0 0 0 0 0 0 0 0 0 0 0 0 0 0 0 0 0 0 0 0 0 0 0 0 0 0 0 0 0 1 1 0 0 0 0 0 1
0 0 0 0 0 0 0 0 0 0 0 0 0 0 0 0 0 0 0 0 0 0 0 0 0 0 0 0 0 0 0 0 0 0 0 0 0 0 0 0 0 0 0
0 0 0 0 0 0 0 0 0 0 0 0 0 0 0 0 0 0 0 0 0 0 0 0 0 0 0 0 0 0 0 0 0 0 0 0 0 0 0 0 0 0 0
0 0 0 0 0 0 0 0 0 0 0 0 0 0 0 0 0 0 0 0 0 0 0 0 0 0 0 0 0 0 0 0 0 0 0 0 0 0 0 0 0 0 0
0 0 0 0 0 0 0 0 0 0 0 0 0 0 0 0 0 0 0 0 0 0 0 0 0 0 0 0 0 0 0 0 0 0 0 0 0 0 0 0 0 0 0
0 0 0 1 1 1 0 0 0 0 0 0 0 0 0 0 0 0 0 0 0 0 0 0 0 0 0 0 0 0 0 0 0 0 0 0 0 0 0 0 0 0 0
Wind_Speed
3 4 5 5 6 8 8 8 8 8 9 9 9 9 9 10 10 10 10 10 9 9 9 9 9 9 9 9 9 9 9 9 8 8 7 7 7 7 6 6 4 6 8
5 5 7 6 8 8 8 8 8 9 10 9 9 9 9 9 10 10 10 10 9 9 9 9 9 9 9 9 9 9 9 9 9 7 5 5 7 7 7 7 7 7 7
6 6 7 7 8 8 8 8 8 9 9 9 9 9 9 9 9 10 10 9 9 9 9 9 9 9 9 9 9 9 9 9 8 5 2 4 7 8 7 7 7 7 7
7 6 7 8 8 8 8 9 10 10 10 9 9 10 10 9 9 9 9 9 9 9 9 9 9 9 9 9 9 9 8 8 7 3 4 7 7 9 8 7 7 7 7
7 7 9 8 8 8 9 9 9 9 10 10 10 10 10 9 9 8 9 8 8 8 8 8 8 8 8 9 9 8 8 7 4 4 7 6 7 8 8 8 7 7 7
8 8 10 9 9 9 9 9 9 10 10 10 10 9 9 9 8 8 8 8 8 8 8 8 7 8 8 8 8 8 8 5 2 6 6 6 7 8 8 8 8 7 8
8 8 9 10 9 9 9 9 9 9 10 9 9 9 8 8 8 7 7 7 7 7 7 7 7 8 8 8 8 8 7 4 5 6 6 7 8 8 9 8 8 8 8
8 7 8 10 8 9 9 10 9 9 9 9 9 9 8 8 7 7 8 7 7 7 7 7 7 8 8 8 8 8 6 5 5 6 6 7 9 8 9 8 8 8 8
8 7 7 7 9 9 9 9 10 10 10 10 9 9 9 8 8 7 7 7 8 8 8 8 9 9 9 8 9 8 6 4 4 5 6 7 8 8 8 9 8 8 8
7 6 6 7 6 7 9 11 10 10 10 10 10 9 7 7 7 6 6 8 7 8 8 9 8 8 9 9 9 7 3 1 6 6 6 8 9 8 9 9 9 8 8
6 6 6 6 6 6 8 8 8 8 8 6 8 6 2 4 6 5 10 8 8 8 9 9 9 8 7 9 8 4 1 4 6 6 7 9 8 9 9 9 9 8 8
7 6 5 5 5 6 5 5 4 5 4 4 5 5 4 5 5 5 8 8 8 7 8 7 6 5 2 5 5 1 3 5 5 6 8 10 9 9 9 9 9 8 8
6 5 5 5 5 4 4 3 3 3 3 4 5 5 4 4 3 3 3 4 5 4 4 5 3 3 4 5 4 5 6 5 5 6 9 11 10 10 10 10 9 9 9
7 5 4 4 4 4 4 3 3 3 3 3 3 5 3 3 3 3 2 3 2 3 3 3 3 5 5 6 7 7 7 5 6 5 8 12 12 11 11 10 10 10 9
7 5 4 3 4 4 4 2 3 3 3 4 3 3 4 3 3 3 3 3 3 3 3 3 4 6 6 7 7 8 8 8 8 7 6 12 12 12 12 11 11 11 10
6 5 5 4 3 3 3 3 3 4 3 3 3 3 4 3 3 2 3 3 3 3 3 4 6 6 6 6 7 7 7 8 8 7 7 9 13 13 13 12 12 11 11
6 6 5 4 4 4 4 4 3 3 3 3 3 3 4 4 3 3 3 3 3 3 4 4 7 5 6 6 7 7 7 8 7 8 8 6 8 12 14 13 12 12 11
6 6 6 4 4 4 4 4 3 3 3 3 3 3 4 4 4 3 3 3 3 3 3 4 4 5 5 5 6 5 6 6 8 8 8 8 7 7 11 15 14 13 13
6 6 7 6 5 5 5 4 3 4 3 3 3 3 4 4 4 4 3 2 4 3 3 4 4 4 5 5 6 5 6 6 6 7 8 9 9 8 7 10 13 15 15
6 6 7 6 5 6 4 4 3 3 3 3 3 3 4 3 4 4 2 3 3 3 3 4 5 5 5 5 6 6 6 6 5 6 7 7 8 9 8 8 7 9 14
8 7 7 7 6 4 4 3 3 3 2 3 3 4 4 4 4 4 2 3 2 3 3 4 5 6 4 3 4 5 6 6 6 5 5 6 7 8 8 8 7 6 6
9 8 8 7 6 5 3 3 2 3 2 3 2 3 4 4 3 3 3 3 3 3 4 4 3 2 3 1 1 2 3 4 4 5 5 5 6 6 8 9 9 8 7
10 9 7 7 7 6 5 4 3 3 3 3 3 2 3 3 3 3 4 3 3 3 3 2 2 2 2 2 2 2 1 2 3 4 6 5 5 5 6 7 8 9 9
10 9 9 8 7 7 7 5 5 3 3 3 2 3 4 3 3 3 4 3 3 2 3 2 2 1 1 1 2 2 3 2 0 3 4 4 5 6 6 6 7 8 8
10 9 8 8 8 7 7 6 5 4 3 3 3 4 4 4 3 3 3 3 3 3 3 3 2 1 1 1 1 2 2 1 1 1 3 3 4 4 5 5 5 6 7
9 9 9 9 8 7 7 7 6 5 5 5 4 4 3 3 3 4 3 3 3 3 3 2 2 2 2 2 1 1 1 1 1 1 1 2 3 4 4 4 4 5 5
Wind_Direction
83 76 88 92 93 92 90 91 100 102 100 98 94 93 94 93 94 92 91 88 85 84 81 78 77 77 76 74 71 69 66 65 64 60 62 67 64 62 60 55 52 84 76
92 89 96 90 90 89 90 91 98 100 99 95 91 90 90 90 92 91 89 86 85 84 80 78 76 77 74 72 70 67 64 63 60 56 54 91 78 61 60 55 40 61 69
93 91 101 89 90 89 89 90 93 93 95 94 92 89 86 85 86 89 90 89 86 84 79 78 76 76 75 72 70 67 62 61 57 45 340 66 91 70 62 61 62 65 68
95 91 86 88 90 90 90 87 86 88 90 91 88 86 84 82 81 81 81 84 84 80 78 76 73 74 74 72 72 71 65 59 50 2 38 52 70 70 62 61 63 65 68
89 88 85 81 88 86 86 86 85 88 90 90 90 87 86 83 81 79 78 82 83 80 79 77 74 75 75 71 72 72 66 63 55 41 53 53 61 65 62 64 64 66 69
89 85 84 77 83 85 87 88 86 89 90 88 86 84 83 83 81 79 78 79 81 81 81 78 76 76 77 74 70 69 64 52 56 58 53 51 60 62 60 63 61 64 68
92 86 86 79 81 86 88 89 87 89 90 87 83 79 77 77 76 75 74 74 76 78 79 81 81 79 77 75 71 67 62 34 54 61 59 56 55 53 57 59 61 63 65
96 93 95 95 89 83 84 86 83 85 86 83 79 74 73 71 72 71 71 73 74 75 77 82 82 79 76 73 69 65 50 360 66 61 62 62 54 53 57 58 61 63 68
95 94 93 102 105 101 86 83 82 80 80 79 77 73 71 70 69 69 72 73 75 75 79 85 84 81 75 71 71 67 62 12 47 55 60 60 53 55 59 60 61 62 63
103 100 99 97 96 100 99 86 83 80 80 79 77 74 78 90 89 90 91 75 76 80 84 87 84 83 80 74 72 68 57 285 54 60 52 60 53 56 60 60 61 61 60
113 107 100 98 93 92 92 98 99 95 90 108 101 95 118 92 88 97 70 74 78 81 84 87 87 90 97 91 75 63 20 57 60 53 52 49 50 56 60 60 61 61 60
126 115 106 98 95 90 86 96 92 92 97 89 88 86 76 73 68 66 89 78 82 88 96 91 102 127 142 97 103 148 68 66 60 60 57 44 51 57 60 61 62 60 60
125 118 115 108 97 93 98 87 84 87 88 80 76 84 81 86 95 81 94 113 109 121 104 114 140 85 79 73 63 65 56 54 55 57 56 47 51 55 58 61 61 61 61
132 128 121 116 112 103 98 90 90 94 91 87 80 76 81 73 67 74 74 66 73 79 83 83 76 85 80 83 75 71 66 58 60 63 59 46 48 53 56 58 58 58 59
138 133 123 120 109 107 102 98 96 86 79 89 75 76 80 76 73 79 82 74 70 76 90 88 83 80 77 72 67 65 66 64 62 61 67 57 52 53 53 56 56 58 58
143 142 137 131 120 118 115 110 90 85 90 78 77 75 79 73 68 72 77 72 68 70 73 86 88 87 80 74 70 66 64 65 59 57 62 76 67 55 51 52 54 55 55
149 149 144 137 134 119 105 92 90 97 95 83 80 72 71 65 64 72 68 82 83 89 91 84 89 92 91 89 79 68 62 56 58 56 55 55 69 66 54 50 49 51 51
159 152 145 147 144 123 115 112 108 99 90 83 78 71 70 66 64 65 70 82 85 87 92 95 98 101 96 88 79 69 69 61 56 52 56 57 54 57 60 50 46 46 46
167 163 158 150 144 128 120 118 104 100 90 83 73 64 60 61 64 75 62 75 97 94 96 103 101 100 96 91 88 76 68 63 59 55 56 55 57 54 58 61 54 48 44
176 172 161 148 151 142 141 128 114 105 100 88 73 63 55 54 62 73 82 89 95 102 102 106 105 95 94 98 92 82 72 72 62 54 53 57 53 54 51 51 56 58 50
178 173 163 163 157 159 153 152 145 130 120 102 82 73 71 63 64 72 69 84 89 96 102 114 115 115 111 111 113 105 91 71 66 64 54 56 62 57 57 53 46 43 57
180 176 173 171 166 166 159 148 138 129 118 93 89 77 75 76 68 71 80 92 97 102 108 109 120 121 109 135 165 150 136 118 77 63 63 57 57 57 53 52 51 46 40
187 181 180 176 171 168 164 154 147 142 148 138 125 103 82 81 79 75 79 81 87 101 106 113 125 127 120 107 12 336 8 82 110 88 66 61 55 51 52 48 47 43 44
190 183 185 184 179 175 176 178 176 173 158 143 134 123 118 101 91 83 86 85 86 90 106 119 114 117 128 118 92 26 22 52 76 120 102 77 64 52 48 43 42 43 41
189 186 190 190 188 184 186 176 189 179 161 153 146 136 134 113 98 96 91 90 88 85 92 93 91 79 82 64 81 96 88 87 9 83 105 104 90 66 53 44 40 40 41
186 186 190 192 190 187 187 185 189 176 173 165 161 151 147 130 113 105 102 98 91 84 88 91 98 92 59 58 48 65 74 61 88 85 107 114 95 82 68 55 42 42 40